• In Hungary
  • List of Countries
  • For 7 days
  • Water Temperature
  • Satellite Maps
  • Weather Map
  • News
  • Weather Widgets
  • user-avatar
    Login

    Hourly Weather Bolshie Kopeny

    Today, 23 October, Tuesday

    Time Temperature Precipitation Wind Pressure Humidity
    00:00 +10°C° 0 mm 4 mps 754 mmHg 59%
    01:00 +10°C° 0 mm 4 mps 753 mmHg 60%
    02:00 +10°C° 0 mm 4 mps 753 mmHg 61%
    03:00 +10°C° 0 mm 4 mps 753 mmHg 62%
    04:00 +10°C° 0.1 mm 4 mps 752 mmHg 64%
    05:00 +10°C° 0.1 mm 4 mps 751 mmHg 65%
    06:00 +10°C° 0.1 mm 4 mps 751 mmHg 66%
    07:00 +9°C° 0.1 mm 5 mps 750 mmHg 66%
    08:00 +9°C° 0.1 mm 5 mps 750 mmHg 67%
    09:00 +9°C° 0.1 mm 6 mps 750 mmHg 68%
    10:00 +9°C° 0.2 mm 6 mps 749 mmHg 70%
    11:00 +9°C° 0.2 mm 6 mps 748 mmHg 71%
    12:00 +10°C° 0.2 mm 6 mps 748 mmHg 73%
    13:00 +10°C° 0.2 mm 6 mps 747 mmHg 76%
    14:00 +10°C° 0.2 mm 5 mps 747 mmHg 78%
    15:00 +10°C° 0.2 mm 5 mps 746 mmHg 80%
    16:00 +10°C° 0.1 mm 5 mps 746 mmHg 82%
    17:00 +11°C° 0.1 mm 4 mps 745 mmHg 84%
    18:00 +11°C° 0.1 mm 4 mps 745 mmHg 87%
    19:00 +11°C° 0 mm 4 mps 745 mmHg 88%
    20:00 +10°C° 0 mm 4 mps 745 mmHg 90%
    21:00 +10°C° 0 mm 3 mps 744 mmHg 92%
    22:00 +10°C° 0 mm 3 mps 744 mmHg 90%
    23:00 +9°C° 0 mm 3 mps 744 mmHg 88%

    Tomorrow, 24 October, Wednesday

    Time Temperature Precipitation Wind Pressure Humidity
    00:00 +9°C° 0 mm 3 mps 744 mmHg 86%
    01:00 +8°C° 0 mm 3 mps 743 mmHg 87%
    02:00 +8°C° 0 mm 3 mps 743 mmHg 89%
    03:00 +7°C° 0 mm 3 mps 743 mmHg 90%
    04:00 +6°C° 0 mm 4 mps 742 mmHg 89%
    05:00 +6°C° 0 mm 4 mps 742 mmHg 88%
    06:00 +5°C° 0 mm 4 mps 741 mmHg 86%
    07:00 +6°C° 0 mm 5 mps 741 mmHg 79%
    08:00 +7°C° 0 mm 6 mps 741 mmHg 72%
    09:00 +8°C° 0 mm 7 mps 741 mmHg 65%
    10:00 +9°C° 0 mm 7 mps 740 mmHg 61%
    11:00 +10°C° 0 mm 8 mps 740 mmHg 58%
    12:00 +11°C° 0 mm 8 mps 739 mmHg 55%
    13:00 +12°C° 0 mm 8 mps 739 mmHg 55%
    14:00 +12°C° 0 mm 8 mps 738 mmHg 55%
    15:00 +12°C° 0 mm 8 mps 738 mmHg 55%
    16:00 +12°C° 0.1 mm 7 mps 738 mmHg 62%
    17:00 +11°C° 0.1 mm 6 mps 737 mmHg 69%
    18:00 +11°C° 0.1 mm 6 mps 737 mmHg 75%
    19:00 +11°C° 0.5 mm 6 mps 736 mmHg 77%
    20:00 +11°C° 0.5 mm 7 mps 736 mmHg 78%
    21:00 +11°C° 0.5 mm 7 mps 736 mmHg 80%
    22:00 +11°C° 0.4 mm 7 mps 735 mmHg 80%
    23:00 +11°C° 0.4 mm 7 mps 735 mmHg 81%

    Day after tomorrow, 25 October, Thursday

    Time Temperature Precipitation Wind Pressure Humidity
    00:00 +11°C° 0.4 mm 7 mps 735 mmHg 82%
    01:00 +11°C° 0.7 mm 7 mps 734 mmHg 84%
    02:00 +11°C° 0.7 mm 7 mps 734 mmHg 86%
    03:00 +11°C° 0.7 mm 7 mps 734 mmHg 87%
    04:00 +12°C° 1.3 mm 8 mps 733 mmHg 86%
    05:00 +12°C° 1.3 mm 8 mps 733 mmHg 85%
    06:00 +12°C° 1.3 mm 9 mps 732 mmHg 84%
    07:00 +12°C° 0.4 mm 9 mps 732 mmHg 84%
    08:00 +12°C° 0.4 mm 9 mps 732 mmHg 84%
    09:00 +12°C° 0.4 mm 9 mps 732 mmHg 84%
    10:00 +12°C° 0.6 mm 9 mps 732 mmHg 82%
    11:00 +12°C° 0.6 mm 9 mps 732 mmHg 81%
    12:00 +12°C° 0.6 mm 9 mps 732 mmHg 79%
    13:00 +11°C° 0.2 mm 8 mps 732 mmHg 71%
    14:00 +11°C° 0.2 mm 8 mps 733 mmHg 63%
    15:00 +10°C° 0.2 mm 7 mps 733 mmHg 56%
    16:00 +9°C° 0 mm 7 mps 733 mmHg 57%
    17:00 +9°C° 0 mm 6 mps 734 mmHg 59%
    18:00 +8°C° 0 mm 6 mps 734 mmHg 60%
    19:00 +7°C° 0 mm 6 mps 735 mmHg 62%
    20:00 +7°C° 0 mm 6 mps 735 mmHg 63%
    21:00 +7°C° 0 mm 6 mps 735 mmHg 65%
    22:00 +5°C° 0 mm 6 mps 736 mmHg 66%
    23:00 +5°C° 0 mm 6 mps 736 mmHg 68%

    26 October, Friday

    Time Temperature Precipitation Wind Pressure Humidity
    00:00 +5°C° 0 mm 6 mps 736 mmHg 69%
    01:00 +5°C° 0 mm 5 mps 736 mmHg 72%
    02:00 +5°C° 0 mm 5 mps 737 mmHg 75%
    03:00 +3°C° 0 mm 5 mps 737 mmHg 78%
    04:00 +3°C° 0 mm 5 mps 737 mmHg 81%
    05:00 +2°C° 0 mm 5 mps 738 mmHg 83%
    06:00 +2°C° 0 mm 5 mps 738 mmHg 85%
    07:00 +3°C° 0 mm 5 mps 739 mmHg 82%
    08:00 +3°C° 0 mm 6 mps 739 mmHg 80%
    09:00 +4°C° 0 mm 6 mps 740 mmHg 77%
    10:00 +4°C° 0 mm 6 mps 740 mmHg 74%
    11:00 +5°C° 0 mm 6 mps 741 mmHg 70%
    12:00 +5°C° 0 mm 6 mps 741 mmHg 67%
    13:00 +5°C° 0.1 mm 6 mps 741 mmHg 65%
    14:00 +5°C° 0.1 mm 6 mps 742 mmHg 64%
    15:00 +6°C° 0.1 mm 5 mps 742 mmHg 62%
    16:00 +5°C° 0 mm 5 mps 743 mmHg 63%
    17:00 +5°C° 0 mm 4 mps 743 mmHg 64%
    18:00 +4°C° 0 mm 4 mps 744 mmHg 65%
    19:00 +4°C° 0 mm 4 mps 744 mmHg 66%
    20:00 +3°C° 0 mm 4 mps 745 mmHg 66%
    21:00 +3°C° 0 mm 4 mps 745 mmHg 67%
    22:00 +1°C° 0 mm 4 mps 746 mmHg 68%
    23:00 +1°C° 0 mm 4 mps 746 mmHg 68%

    27 October, Saturday

    Time Temperature Precipitation Wind Pressure Humidity
    00:00 +1°C° 0 mm 4 mps 747 mmHg 69%
    01:00 +1°C° 0 mm 4 mps 747 mmHg 71%
    02:00 0°C° 0 mm 4 mps 747 mmHg 72%
    03:00 0°C° 0 mm 4 mps 748 mmHg 74%
    04:00 0°C° 0 mm 4 mps 748 mmHg 75%
    05:00 0°C° 0 mm 4 mps 749 mmHg 77%
    06:00 0°C° 0 mm 4 mps 749 mmHg 78%
    07:00 0°C° 0 mm 5 mps 750 mmHg 77%
    08:00 +1°C° 0 mm 5 mps 750 mmHg 76%
    09:00 +2°C° 0 mm 6 mps 751 mmHg 75%
    10:00 +3°C° 0 mm 6 mps 751 mmHg 70%
    11:00 +4°C° 0 mm 6 mps 752 mmHg 65%
    12:00 +5°C° 0 mm 6 mps 752 mmHg 61%
    13:00 +5°C° 0 mm 6 mps 752 mmHg 59%
    14:00 +7°C° 0 mm 6 mps 752 mmHg 57%
    15:00 +7°C° 0 mm 6 mps 753 mmHg 55%
    16:00 +6°C° 0 mm 5 mps 753 mmHg 61%
    17:00 +5°C° 0 mm 4 mps 754 mmHg 66%
    18:00 +4°C° 0 mm 3 mps 754 mmHg 72%
    19:00 +4°C° 0 mm 3 mps 754 mmHg 74%
    20:00 +4°C° 0 mm 3 mps 754 mmHg 77%
    21:00 +4°C° 0 mm 3 mps 755 mmHg 80%
    22:00 +4°C° 0 mm 3 mps 755 mmHg 78%
    23:00 +4°C° 0 mm 3 mps 755 mmHg 77%

    28 October, Sunday

    Time Temperature Precipitation Wind Pressure Humidity
    00:00 +5°C° 0 mm 4 mps 755 mmHg 76%
    01:00 +5°C° 0 mm 4 mps 755 mmHg 75%
    02:00 +5°C° 0 mm 4 mps 755 mmHg 74%
    03:00 +5°C° 0 mm 5 mps 755 mmHg 73%
    04:00 +6°C° 0 mm 5 mps 755 mmHg 72%
    05:00 +6°C° 0 mm 5 mps 755 mmHg 71%
    06:00 +5°C° 0 mm 6 mps 755 mmHg 70%
    07:00 +7°C° 0 mm 6 mps 755 mmHg 70%
    08:00 +6°C° 0 mm 7 mps 755 mmHg 71%
    09:00 +8°C° 0 mm 7 mps 755 mmHg 71%
    10:00 +9°C° 0.1 mm 7 mps 755 mmHg 68%
    11:00 +10°C° 0.1 mm 8 mps 755 mmHg 65%
    12:00 +11°C° 0.1 mm 8 mps 755 mmHg 62%
    13:00 +12°C° 0 mm 8 mps 755 mmHg 61%
    14:00 +12°C° 0 mm 8 mps 755 mmHg 61%
    15:00 +13°C° 0 mm 8 mps 755 mmHg 60%
    16:00 +12°C° 0 mm 8 mps 755 mmHg 64%
    17:00 +12°C° 0 mm 8 mps 755 mmHg 69%
    18:00 +11°C° 0 mm 7 mps 755 mmHg 74%
    19:00 +11°C° 0 mm 7 mps 755 mmHg 72%
    20:00 +11°C° 0 mm 8 mps 755 mmHg 71%
    21:00 +11°C° 0 mm 8 mps 755 mmHg 69%
    22:00 +10°C° 0 mm 8 mps 755 mmHg 67%
    23:00 +10°C° 0 mm 8 mps 755 mmHg 66%

    29 October, Monday

    Time Temperature Precipitation Wind Pressure Humidity
    00:00 +10°C° 0 mm 8 mps 755 mmHg 64%
    01:00 +10°C° 0 mm 8 mps 755 mmHg 62%
    02:00 +10°C° 0 mm 8 mps 755 mmHg 61%
    03:00 +9°C° 0 mm 8 mps 755 mmHg 60%
    04:00 +9°C° 0 mm 7 mps 755 mmHg 64%
    05:00 +9°C° 0 mm 7 mps 755 mmHg 68%
    06:00 +9°C° 0 mm 7 mps 755 mmHg 72%
    07:00 +10°C° 0 mm 7 mps 755 mmHg 71%
    08:00 +10°C° 0 mm 7 mps 755 mmHg 70%
    09:00 +11°C° 0 mm 7 mps 755 mmHg 69%
    10:00 +12°C° 0 mm 7 mps 756 mmHg 64%
    11:00 +14°C° 0 mm 7 mps 756 mmHg 58%
    12:00 +16°C° 0 mm 7 mps 756 mmHg 53%
    13:00 +16°C° 0 mm 7 mps 756 mmHg 52%
    14:00 +16°C° 0 mm 6 mps 756 mmHg 51%
    15:00 +16°C° 0 mm 6 mps 756 mmHg 50%
    16:00 +15°C° 0 mm 5 mps 756 mmHg 55%
    17:00 +14°C° 0 mm 5 mps 756 mmHg 60%
    18:00 +13°C° 0 mm 4 mps 757 mmHg 65%
    19:00 +12°C° 0 mm 4 mps 757 mmHg 69%
    20:00 +12°C° 0 mm 3 mps 757 mmHg 72%
    21:00 +11°C° 0 mm 3 mps 757 mmHg 75%
    22:00 +11°C° 0 mm 3 mps 757 mmHg 78%
    23:00 +11°C° 0 mm 3 mps 757 mmHg 80%
    Show more